GW2438 Weather Reports


time (UTC)temp
C
wind
direction
speed
KPH
gust
KPH
rain 1hr
cm
rain 24hr
cm
rain mn
cm
humidity
%
barometer
mb
20260508155541 14 225 3.2 6.4 0.00 0.00 0.00 66 1019.7
20260508154520 14 223 4.8 11.3 0.00 0.00 0.00 66 1019.9
20260508153518 14 222 4.8 12.9 0.00 0.00 0.00 67 1019.9
20260508152516 14 219 4.8 12.9 0.00 0.00 0.00 66 1019.9
20260508151634 15 206 4.8 16.1 0.00 0.00 0.00 67 1019.9
20260508150613 15 227 3.2 12.9 0.00 0.00 0.00 67 1020.0
20260508145611 15 219 4.8 6.4 0.00 0.00 0.00 70 1020.0
20260508144609 13 224 6.4 17.7 0.00 0.00 0.00 78 1019.8
20260508143628 10 207 4.8 11.3 0.00 0.00 0.00 83 1019.7
20260508142606 9 233 1.6 9.7 0.00 0.00 0.00 84 1019.6
20260508141604 9 184 1.6 3.2 0.00 0.00 0.00 84 1019.4
20260508140602 9 192 3.2 9.7 0.00 0.00 0.00 85 1019.3
20260508135600 8 187 1.6 4.8 0.00 0.00 0.00 85 1019.2
20260508134619 8 237 1.6 4.8 0.00 0.00 0.00 85 1019.0
20260508133557 8 227 1.6 6.4 0.00 0.00 0.00 85 1018.8
20260508132555 8 219 3.2 6.4 0.00 0.00 0.00 85 1018.7
20260508131554 8 231 1.6 4.8 0.00 0.00 0.00 85 1018.4
20260508130552 8 231 1.6 4.8 0.00 0.00 0.00 85 1018.3
20260508125551 8 235 3.2 6.4 0.00 0.00 0.00 85 1018.4
20260508124549 8 217 3.2 6.4 0.00 0.00 0.00 85 1018.1
20260508123607 8 234 1.6 4.8 0.00 0.00 0.00 84 1018.1
20260508122545 8 236 4.8 11.3 0.00 0.00 0.00 84 1018.0
20260508121543 9 231 3.2 6.4 0.00 0.00 0.00 84 1017.9
20260508120542 9 235 6.4 9.7 0.00 0.00 0.00 84 1017.9
20260508115540 9 249 3.2 9.7 0.00 0.00 0.00 84 1017.7
20260508114538 9 233 3.2 6.4 0.00 0.00 0.00 84 1017.7
20260508113537 9 229 4.8 6.4 0.00 0.00 0.00 83 1017.5
20260508112535 9 235 3.2 9.7 0.00 0.00 0.00 83 1017.5
20260508111533 9 228 3.2 6.4 0.00 0.00 0.00 83 1017.5
20260508110532 9 241 3.2 4.8 0.00 0.00 0.00 83 1017.3
20260508105530 9 240 3.2 6.4 0.00 0.00 0.00 83 1017.1
20260508104528 9 254 4.8 11.3 0.00 0.00 0.00 83 1017.0
20260508103526 9 236 3.2 6.4 0.00 0.00 0.00 83 1016.9
20260508102525 9 230 3.2 9.7 0.00 0.00 0.00 83 1016.9
20260508101524 9 243 3.2 6.4 0.00 0.00 0.00 83 1017.0
20260508100521 9 247 3.2 4.8 0.00 0.00 0.00 83 1016.9
20260508095519 9 236 3.2 6.4 0.00 0.00 0.00 83 1016.9
20260508094518 9 233 1.6 6.4 0.00 0.00 0.00 82 1016.9
20260508093516 10 249 1.6 4.8 0.00 0.00 0.00 82 1017.0
20260508092615 10 236 1.6 4.8 0.00 0.00 0.00 82 1016.7
20260508091613 10 241 1.6 6.4 0.00 0.00 0.00 82 1016.8
20260508090611 10 246 1.6 4.8 0.00 0.00 0.00 82 1016.9
20260508085629 10 247 0.0 1.6 0.00 0.00 0.00 81 1016.8
20260508084607 10 247 0.0 1.6 0.00 0.00 0.00 81 1016.8
20260508083606 10 0.0 0.0 0.00 0.00 0.00 80 1016.7
20260508082604 10 0.0 0.0 0.00 0.00 0.00 79 1016.6
20260508081622 10 0.0 0.0 0.00 0.00 0.00 79 1016.6
20260508080601 10 247 0.0 3.2 0.00 0.00 0.00 79 1016.5
20260508075559 10 255 0.0 1.6 0.00 0.00 0.00 78 1016.7
20260508074557 11 255 0.0 1.6 0.00 0.00 0.00 77 1016.6
20260508073555 11 0.0 0.0 0.00 0.00 0.00 77 1016.6
20260508072554 11 0.0 0.0 0.00 0.00 0.00 77 1016.6
20260508071552 11 291 0.0 3.2 0.00 0.00 0.00 77 1016.7
20260508070551 11 259 0.0 3.2 0.00 0.00 0.00 77 1016.8
20260508065549 11 287 0.0 3.2 0.00 0.00 0.00 76 1016.9
20260508064547 11 291 0.0 3.2 0.00 0.00 0.00 75 1016.8
20260508063545 11 291 0.0 1.6 0.00 0.00 0.00 75 1016.7
20260508062543 11 291 0.0 1.6 0.00 0.00 0.00 75 1016.8
20260508061541 11 0.0 0.0 0.00 0.00 0.00 74 1016.7
20260508060540 11 0.0 0.0 0.00 0.00 0.00 74 1016.7
20260508055538 11 291 0.0 1.6 0.00 0.00 0.00 73 1016.6
20260508054536 12 0.0 0.0 0.00 0.00 0.00 72 1016.8
20260508053555 12 0.0 0.0 0.00 0.00 0.00 71 1016.9
20260508052533 12 0.0 0.0 0.00 0.00 0.00 69 1016.8
20260508051531 12 0.0 0.0 0.00 0.00 0.00 69 1016.9
20260508050529 13 0.0 0.0 0.00 0.00 0.00 68 1016.9
20260508045548 13 0.0 0.0 0.00 0.00 0.00 68 1016.8
20260508044526 13 0.0 0.0 0.00 0.00 0.00 66 1016.8
20260508043524 14 0.0 0.0 0.00 0.00 0.00 66 1017.0
20260508042523 14 0.0 0.0 0.00 0.00 0.00 65 1016.9
20260508041541 15 0.0 0.0 0.00 0.00 0.00 65 1016.9
20260508040520 15 12 0.0 1.6 0.00 0.00 0.00 64 1016.8
20260508035517 15 0.0 0.0 0.00 0.00 0.00 62 1016.9
20260508034516 15 0.0 0.0 0.00 0.00 0.00 60 1016.7
20260508033614 16 0.0 0.0 0.00 0.00 0.00 59 1016.7
20260508032613 16 0.0 0.0 0.00 0.00 0.00 59 1016.6
20260508031611 16 12 1.6 3.2 0.00 0.00 0.00 58 1016.7
20260508030612 16 326 1.6 3.2 0.00 0.00 0.00 57 1016.6
20260508025607 16 332 0.0 1.6 0.00 0.00 0.00 57 1016.7
20260508024626 16 331 0.0 1.6 0.00 0.00 0.00 56 1016.7
20260508023604 17 352 1.6 3.2 0.00 0.00 0.00 56 1016.9
20260508022602 17 9 1.6 3.2 0.00 0.00 0.00 55 1016.9
20260508021620 17 4 1.6 3.2 0.00 0.00 0.00 55 1016.9
20260508020659 17 8 1.6 4.8 0.00 0.00 0.00 54 1017.0
20260508015617 17 351 1.6 4.8 0.00 0.00 0.00 54 1017.1
20260508014617 17 358 3.2 4.8 0.00 0.00 0.00 55 1017.1
20260508013553 17 346 4.8 9.7 0.00 0.00 0.00 53 1017.1
20260508012552 17 360 3.2 6.4 0.00 0.00 0.00 54 1017.3
20260508011550 17 31 3.2 6.4 0.00 0.00 0.00 53 1017.4
20260508010548 17 5 3.2 4.8 0.00 0.00 0.00 53 1017.4
20260508005547 17 353 3.2 6.4 0.00 0.00 0.00 53 1017.5
20260508004545 18 28 4.8 6.4 0.00 0.00 0.00 52 1017.6
20260508003543 18 18 4.8 11.3 0.00 0.00 0.00 52 1017.6
20260508002542 17 17 3.2 9.7 0.00 0.00 0.00 52 1017.7
20260508001540 17 359 3.2 9.7 0.00 0.00 0.00 52 1017.8
20260508000538 17 332 3.2 11.3 0.00 0.00 0.00 53 1017.9
20260507235536 17 2 4.8 11.3 0.00 0.00 0.00 52 1018.0
20260507234534 17 342 4.8 11.3 0.00 0.00 0.00 53 1018.0
20260507233533 17 234 1.6 3.2 0.00 0.00 0.00 55 1018.0
20260507232531 17 1 3.2 11.3 0.00 0.00 0.00 54 1018.0
20260507231529 17 13 4.8 12.9 0.00 0.00 0.00 55 1018.1
20260507230528 17 10 4.8 11.3 0.00 0.00 0.00 54 1018.2
20260507225547 17 357 4.8 9.7 0.00 0.00 0.00 54 1018.4
20260507224545 17 328 3.2 9.7 0.00 0.00 0.00 56 1018.5
20260507223522 17 345 4.8 9.7 0.00 0.00 0.00 55 1018.5
20260507222521 17 350 4.8 11.3 0.00 0.00 0.00 55 1018.5
20260507221519 17 4 8.0 14.5 0.00 0.00 0.00 56 1018.7
20260507220518 17 328 3.2 6.4 0.00 0.00 0.00 57 1018.9
20260507215515 17 351 1.6 9.7 0.00 0.00 0.00 57 1018.8
20260507214634 17 0 6.4 12.9 0.00 0.00 0.00 57 1019.0
20260507213612 17 7 6.4 12.9 0.00 0.00 0.00 57 1019.1
20260507212611 17 341 3.2 9.7 0.00 0.00 0.00 59 1019.3
20260507211629 16 303 3.2 6.4 0.00 0.00 0.00 59 1019.2
20260507210608 16 0 3.2 14.5 0.00 0.00 0.00 58 1019.5
20260507205606 16 356 4.8 11.3 0.00 0.00 0.00 60 1019.5
20260507204604 16 12 4.8 14.5 0.00 0.00 0.00 58 1019.5
20260507203602 16 32 4.8 11.3 0.00 0.00 0.00 60 1019.6
20260507202600 16 350 4.8 11.3 0.00 0.00 0.00 59 1019.7
20260507201558 16 349 3.2 11.3 0.00 0.00 0.00 60 1019.8
20260507200557 16 267 1.6 4.8 0.00 0.00 0.00 62 1020.0
20260507195616 16 347 3.2 9.7 0.00 0.00 0.00 63 1020.1
20260507194553 15 4 6.4 14.5 0.00 0.00 0.00 62 1020.1
20260507193552 16 14 4.8 11.3 0.00 0.00 0.00 61 1020.2
20260507192550 16 10 4.8 11.3 0.00 0.00 0.00 60 1020.2
20260507191609 16 217 1.6 3.2 0.00 0.00 0.00 64 1020.2
20260507190547 15 313 1.6 6.4 0.00 0.00 0.00 65 1020.4
20260507185545 15 44 1.6 4.8 0.00 0.00 0.00 65 1020.4
20260507184543 15 14 4.8 9.7 0.00 0.00 0.00 64 1020.4
20260507183542 15 353 3.2 6.4 0.00 0.00 0.00 63 1020.5
20260507182540 15 16 1.6 4.8 0.00 0.00 0.00 63 1020.6
20260507181538 15 12 1.6 3.2 0.00 0.00 0.00 62 1020.7
20260507180536 15 293 1.6 4.8 0.00 0.00 0.00 64 1020.6
20260507175534 15 320 1.6 3.2 0.00 0.00 0.00 64 1020.7
20260507174532 15 288 3.2 6.4 0.00 0.00 0.00 65 1020.8
20260507173531 15 321 1.6 3.2 0.00 0.00 0.00 64 1020.8
20260507172529 15 241 3.2 9.7 0.00 0.00 0.00 65 1020.8
20260507171551 16 256 3.2 9.7 0.00 0.00 0.00 65 1020.8
20260507170546 16 231 1.6 4.8 0.00 0.00 0.00 68 1020.7
20260507165544 15 253 3.2 4.8 0.00 0.00 0.00 67 1020.8
20260507164522 15 245 1.6 3.2 0.00 0.00 0.00 67 1020.8
20260507163521 15 167 1.6 6.4 0.00 0.00 0.00 68 1020.7
20260507162518 15 210 4.8 9.7 0.00 0.00 0.00 70 1021.0
20260507161517 14 227 4.8 9.7 0.00 0.00 0.00 70 1020.9
20260507160615 15 236 1.6 3.2 0.00 0.00 0.00 70 1020.9